CDN811 CYOW-CYWG

Flight info

Callsign CDN811
Flight time N/A
Altitude 36000
Route SELES DCT OLIGO Q904 OXASA DCT BESEL DCT FELTN DCT GOVIT NORAK6
Aircraft A320/M-SDE3FGHIRWY/LB1

Departure

Time N/A
Airport Ottawa Macdonald-Cartier International Airport (CYOW)

Arrival

Time 2026-05-05 05:24
Airport Winnipeg / James Armstrong Richardson International Airport (CYWG)
Time Latitude Longitude Altitude Speed Heading
2026-05-05 04:06 47.05758 -81.60427 35544 ft 383 kts 288°
2026-05-05 04:07 47.07934 -81.67567 35544 ft 383 kts 288°
2026-05-05 04:07 47.10098 -81.74711 35587 ft 384 kts 287°
2026-05-05 04:08 47.12262 -81.81882 35553 ft 385 kts 287°
2026-05-05 04:08 47.14435 -81.89076 35544 ft 385 kts 287°
2026-05-05 04:09 47.16612 -81.96281 35538 ft 386 kts 287°
2026-05-05 04:09 47.18775 -82.03503 35537 ft 386 kts 287°
2026-05-05 04:10 47.20937 -82.10733 35538 ft 386 kts 287°
2026-05-05 04:10 47.23104 -82.17983 35550 ft 387 kts 287°
2026-05-05 04:11 47.25264 -82.25251 35532 ft 388 kts 287°
2026-05-05 04:11 47.27413 -82.32497 35529 ft 389 kts 287°
2026-05-05 04:12 47.29572 -82.39798 35534 ft 389 kts 287°
2026-05-05 04:12 47.31727 -82.47102 35526 ft 389 kts 287°
2026-05-05 04:13 47.33879 -82.54436 35556 ft 390 kts 287°
2026-05-05 04:13 47.36031 -82.61788 35561 ft 391 kts 287°
2026-05-05 04:14 47.38178 -82.69147 35538 ft 393 kts 287°
2026-05-05 04:14 47.40337 -82.76562 35529 ft 394 kts 287°
2026-05-05 04:15 47.42500 -82.84011 35530 ft 394 kts 287°
2026-05-05 04:15 47.44654 -82.91455 35560 ft 395 kts 287°
2026-05-05 04:16 47.46808 -82.98934 35541 ft 395 kts 287°
2026-05-05 04:16 47.48963 -83.06416 35538 ft 396 kts 287°
2026-05-05 04:17 47.51117 -83.13909 35538 ft 396 kts 287°
2026-05-05 04:17 47.53267 -83.21420 35529 ft 396 kts 287°
2026-05-05 04:18 47.55395 -83.28889 35531 ft 396 kts 286°
2026-05-05 04:18 47.57532 -83.36425 35545 ft 397 kts 287°
2026-05-05 04:19 47.59666 -83.43980 35530 ft 398 kts 287°
2026-05-05 04:19 47.61804 -83.51550 35527 ft 398 kts 287°
2026-05-05 04:20 47.63943 -83.59130 35528 ft 399 kts 287°
2026-05-05 04:20 47.66080 -83.66753 35520 ft 400 kts 287°
2026-05-05 04:21 47.68211 -83.74391 35532 ft 401 kts 287°
2026-05-05 04:21 47.70343 -83.82059 35526 ft 402 kts 287°
2026-05-05 04:22 47.72483 -83.89740 35518 ft 402 kts 287°
2026-05-05 04:22 47.74599 -83.97372 35523 ft 402 kts 287°
2026-05-05 04:23 47.76723 -84.05067 35524 ft 403 kts 287°
2026-05-05 04:23 47.78842 -84.12774 35540 ft 403 kts 287°
2026-05-05 04:24 47.80967 -84.20508 35531 ft 404 kts 287°
2026-05-05 04:25 47.84153 -84.32133 35517 ft 405 kts 287°
2026-05-05 04:25 47.86266 -84.39896 35517 ft 405 kts 287°
2026-05-05 04:26 47.88375 -84.47673 35537 ft 405 kts 287°
2026-05-05 04:26 47.90484 -84.55471 35534 ft 406 kts 288°
2026-05-05 04:27 47.92592 -84.63302 35522 ft 407 kts 288°
2026-05-05 04:27 47.94679 -84.71094 35515 ft 407 kts 288°
2026-05-05 04:28 47.96740 -84.78980 35511 ft 406 kts 283°
2026-05-05 04:28 47.98228 -84.87084 35511 ft 404 kts 282°
2026-05-05 04:29 47.99705 -84.95185 35532 ft 405 kts 282°
2026-05-05 04:29 48.01185 -85.03307 35525 ft 405 kts 282°
2026-05-05 04:30 48.02640 -85.11391 35521 ft 405 kts 282°
2026-05-05 04:30 48.04098 -85.19525 35516 ft 406 kts 282°
2026-05-05 04:31 48.05559 -85.27684 35521 ft 406 kts 282°
2026-05-05 04:31 48.07005 -85.35846 35523 ft 406 kts 282°
2026-05-05 04:32 48.08459 -85.44028 35530 ft 406 kts 282°
2026-05-05 04:32 48.09167 -85.48028 34389 ft 406 kts 283°
2026-05-05 04:32 48.09887 -85.52116 35538 ft 408 kts 281°
2026-05-05 04:33 48.11316 -85.60255 35526 ft 406 kts 281°
2026-05-05 04:33 48.12749 -85.68444 35526 ft 406 kts 281°
2026-05-05 04:34 48.14170 -85.76617 35530 ft 407 kts 281°
2026-05-05 04:34 48.15589 -85.84830 35528 ft 409 kts 281°
2026-05-05 04:35 48.17006 -85.93108 35530 ft 410 kts 281°
2026-05-05 04:35 48.18451 -86.01515 35528 ft 410 kts 281°
2026-05-05 04:36 48.22321 -86.24311 35547 ft 410 kts 281°
2026-05-05 04:36 48.27901 -86.57660 35560 ft 412 kts 281°
2026-05-05 04:37 48.33371 -86.91029 35568 ft 411 kts 281°
2026-05-05 04:37 48.38730 -87.24368 35561 ft 409 kts 281°
2026-05-05 04:38 48.43982 -87.57731 35544 ft 411 kts 281°
2026-05-05 04:38 48.49186 -87.91400 35557 ft 413 kts 281°
2026-05-05 04:39 48.54279 -88.25245 35584 ft 414 kts 280°
2026-05-05 04:39 48.59315 -88.59279 35582 ft 416 kts 280°
2026-05-05 04:40 48.64260 -88.93548 35602 ft 418 kts 280°
2026-05-05 04:40 48.69460 -89.27715 35636 ft 420 kts 283°
2026-05-05 04:41 48.74941 -89.62047 35643 ft 419 kts 282°
2026-05-05 04:41 48.80293 -89.96388 35642 ft 418 kts 282°
2026-05-05 04:42 48.85541 -90.30740 35656 ft 417 kts 282°
2026-05-05 04:42 48.88950 -90.53481 35656 ft 417 kts 282°
2026-05-05 04:43 48.91506 -90.70660 35658 ft 417 kts 281°
2026-05-05 04:43 48.93474 -90.84137 35665 ft 417 kts 281°
2026-05-05 04:44 48.94721 -90.92754 35676 ft 417 kts 281°
2026-05-05 04:44 48.95962 -91.01392 35671 ft 417 kts 281°
2026-05-05 04:45 48.97193 -91.09978 35679 ft 418 kts 281°
2026-05-05 04:45 48.98429 -91.18621 35678 ft 418 kts 281°
2026-05-05 04:46 48.99662 -91.27278 35699 ft 418 kts 281°
2026-05-05 04:46 49.01069 -91.37216 35688 ft 418 kts 281°
2026-05-05 04:47 49.03099 -91.51620 35707 ft 418 kts 281°
2026-05-05 04:47 49.05493 -91.69004 35722 ft 419 kts 281°
2026-05-05 04:48 49.07884 -91.86420 35736 ft 420 kts 281°
2026-05-05 04:48 49.10257 -92.03877 35743 ft 420 kts 281°
2026-05-05 04:49 49.12588 -92.21347 35751 ft 420 kts 281°
2026-05-05 04:49 49.14909 -92.38877 35758 ft 420 kts 281°
2026-05-05 04:50 49.17180 -92.56389 35749 ft 420 kts 281°
2026-05-05 04:50 49.19443 -92.73887 35754 ft 419 kts 281°
2026-05-05 04:51 49.21645 -92.91285 35760 ft 419 kts 281°
2026-05-05 04:51 49.23851 -93.08800 35770 ft 419 kts 281°
2026-05-05 04:52 49.26027 -93.26318 35781 ft 419 kts 281°
2026-05-05 04:52 49.28179 -93.43921 35775 ft 421 kts 281°
2026-05-05 04:53 49.29601 -93.55676 35778 ft 422 kts 281°
2026-05-05 04:53 49.30653 -93.64466 35780 ft 422 kts 281°
2026-05-05 04:54 49.31705 -93.73320 35781 ft 422 kts 281°
2026-05-05 04:54 49.32752 -93.82166 35787 ft 422 kts 281°
2026-05-05 04:55 49.33796 -93.91027 35796 ft 422 kts 281°
2026-05-05 04:55 49.34839 -93.99890 35806 ft 423 kts 281°
2026-05-05 04:56 49.35865 -94.08773 35811 ft 423 kts 281°
2026-05-05 04:56 49.36892 -94.17673 35826 ft 423 kts 281°
2026-05-05 04:57 49.37906 -94.26520 35556 ft 423 kts 281°
2026-05-05 04:57 49.38410 -94.30945 35321 ft 420 kts 281°
2026-05-05 04:57 49.38911 -94.35351 35088 ft 418 kts 281°
2026-05-05 04:57 49.39407 -94.39743 34856 ft 416 kts 281°
2026-05-05 04:58 49.39896 -94.44104 34629 ft 413 kts 280°
2026-05-05 04:58 49.40381 -94.48445 34397 ft 410 kts 281°
2026-05-05 04:58 49.40861 -94.52746 34175 ft 408 kts 281°
2026-05-05 04:58 49.41339 -94.57021 33959 ft 405 kts 281°
2026-05-05 04:59 49.41814 -94.61285 33704 ft 402 kts 281°
2026-05-05 04:59 49.42278 -94.65483 33254 ft 397 kts 281°
2026-05-05 04:59 49.42736 -94.69644 32797 ft 393 kts 281°
2026-05-05 04:59 49.43188 -94.73767 32313 ft 390 kts 281°
2026-05-05 05:00 49.43631 -94.77816 31851 ft 387 kts 281°
2026-05-05 05:00 49.44073 -94.81878 31400 ft 383 kts 281°
2026-05-05 05:00 49.44509 -94.85894 30959 ft 380 kts 281°
2026-05-05 05:00 49.44940 -94.89890 30513 ft 378 kts 281°
2026-05-05 05:01 49.45366 -94.93869 30059 ft 375 kts 281°
2026-05-05 05:01 49.45783 -94.97828 29515 ft 374 kts 281°
2026-05-05 05:01 49.46198 -95.01744 29145 ft 368 kts 281°
2026-05-05 05:01 49.46615 -95.05587 28778 ft 362 kts 282°
2026-05-05 05:02 49.47031 -95.09373 28401 ft 357 kts 282°
2026-05-05 05:02 49.47429 -95.13072 28000 ft 353 kts 282°
2026-05-05 05:02 49.47812 -95.16775 27597 ft 349 kts 281°
2026-05-05 05:02 49.48179 -95.20441 27221 ft 344 kts 281°
2026-05-05 05:03 49.48549 -95.24044 26855 ft 339 kts 282°
2026-05-05 05:03 49.48927 -95.27607 26508 ft 334 kts 282°
2026-05-05 05:03 49.49296 -95.31131 26053 ft 333 kts 282°
2026-05-05 05:03 49.49653 -95.34642 25611 ft 332 kts 282°
2026-05-05 05:04 49.50010 -95.38130 25253 ft 329 kts 282°
2026-05-05 05:04 49.50374 -95.41591 25016 ft 328 kts 283°
2026-05-05 05:04 49.50744 -95.45046 24610 ft 327 kts 283°
2026-05-05 05:04 49.51112 -95.48500 24213 ft 326 kts 283°
2026-05-05 05:05 49.51470 -95.51934 23811 ft 324 kts 283°
2026-05-05 05:05 49.51808 -95.55311 23446 ft 323 kts 282°
2026-05-05 05:05 49.52148 -95.58735 22970 ft 322 kts 283°
2026-05-05 05:05 49.52492 -95.62142 22523 ft 321 kts 283°
2026-05-05 05:06 49.52826 -95.65538 22035 ft 321 kts 282°
2026-05-05 05:06 49.53150 -95.68934 21597 ft 320 kts 282°
2026-05-05 05:06 49.53488 -95.72284 21316 ft 314 kts 283°
2026-05-05 05:06 49.53843 -95.75579 20954 ft 311 kts 283°
2026-05-05 05:07 49.54203 -95.78864 20555 ft 310 kts 284°
2026-05-05 05:07 49.54664 -95.82041 20168 ft 305 kts 291°
2026-05-05 05:07 49.55428 -95.85060 19782 ft 301 kts 297°
2026-05-05 05:07 49.56252 -95.88029 19356 ft 302 kts 297°
2026-05-05 05:08 49.57079 -95.90990 18961 ft 301 kts 297°
2026-05-05 05:08 49.57905 -95.93949 18628 ft 299 kts 297°
2026-05-05 05:08 49.58722 -95.96898 18265 ft 298 kts 297°
2026-05-05 05:08 49.59531 -95.99837 17849 ft 297 kts 296°
2026-05-05 05:09 49.60335 -96.02768 17463 ft 296 kts 296°
2026-05-05 05:09 49.61131 -96.05680 17104 ft 294 kts 296°
2026-05-05 05:09 49.61925 -96.08575 16731 ft 292 kts 296°
2026-05-05 05:09 49.62717 -96.11453 16369 ft 291 kts 296°
2026-05-05 05:10 49.63506 -96.14313 16017 ft 290 kts 296°
2026-05-05 05:10 49.64288 -96.17169 15660 ft 288 kts 296°
2026-05-05 05:10 49.65068 -96.20023 15307 ft 288 kts 296°
2026-05-05 05:10 49.65840 -96.22858 14948 ft 287 kts 296°
2026-05-05 05:11 49.66613 -96.25700 14600 ft 286 kts 296°
2026-05-05 05:11 49.67385 -96.28527 14255 ft 285 kts 296°
2026-05-05 05:11 49.68153 -96.31350 13898 ft 285 kts 295°
2026-05-05 05:11 49.68911 -96.34143 13534 ft 284 kts 296°
2026-05-05 05:12 49.69671 -96.36941 13167 ft 282 kts 295°
2026-05-05 05:12 49.70425 -96.39730 12808 ft 280 kts 295°
2026-05-05 05:12 49.71171 -96.42504 12462 ft 278 kts 295°
2026-05-05 05:12 49.71913 -96.45254 12107 ft 276 kts 295°
2026-05-05 05:13 49.72649 -96.47987 11751 ft 275 kts 295°
2026-05-05 05:13 49.73374 -96.50707 11396 ft 273 kts 292°
2026-05-05 05:13 49.73815 -96.53562 11041 ft 275 kts 279°
2026-05-05 05:13 49.73865 -96.56518 10671 ft 275 kts 273°
2026-05-05 05:14 49.73857 -96.59460 10312 ft 274 kts 273°
2026-05-05 05:14 49.73850 -96.62402 9939 ft 272 kts 273°
2026-05-05 05:14 49.73845 -96.65327 9543 ft 271 kts 273°
2026-05-05 05:14 49.73838 -96.68226 9155 ft 269 kts 273°
2026-05-05 05:15 49.73828 -96.71102 8774 ft 266 kts 273°
2026-05-05 05:15 49.73820 -96.73956 8397 ft 264 kts 273°
2026-05-05 05:15 49.73813 -96.76773 8012 ft 261 kts 273°
2026-05-05 05:15 49.73806 -96.79573 7605 ft 258 kts 275°
2026-05-05 05:16 49.73798 -96.82335 7242 ft 256 kts 275°
2026-05-05 05:16 49.73792 -96.85041 6849 ft 254 kts 275°
2026-05-05 05:16 49.73782 -96.87756 6454 ft 252 kts 275°
2026-05-05 05:16 49.73768 -96.90434 6213 ft 243 kts 275°
2026-05-05 05:17 49.73751 -96.92992 6031 ft 233 kts 275°
2026-05-05 05:17 49.73733 -96.95447 5899 ft 221 kts 275°
2026-05-05 05:17 49.73794 -96.97823 5927 ft 223 kts 284°
2026-05-05 05:17 49.74091 -97.00184 5547 ft 222 kts 285°
2026-05-05 05:18 49.74389 -97.02515 5211 ft 220 kts 285°
2026-05-05 05:18 49.74678 -97.04824 4881 ft 218 kts 285°
2026-05-05 05:18 49.74963 -97.07121 4554 ft 217 kts 285°
2026-05-05 05:18 49.75244 -97.09398 4217 ft 215 kts 284°
2026-05-05 05:19 49.75518 -97.11657 3895 ft 212 kts 284°
2026-05-05 05:19 49.75775 -97.13821 3740 ft 196 kts 284°
2026-05-05 05:19 49.76015 -97.15842 3688 ft 187 kts 284°
2026-05-05 05:19 49.76248 -97.17787 3632 ft 185 kts 284°
2026-05-05 05:20 49.76482 -97.19730 3562 ft 183 kts 285°
2026-05-05 05:20 49.76738 -97.21659 3466 ft 182 kts 291°
2026-05-05 05:20 49.77287 -97.23398 3197 ft 179 kts 308°
2026-05-05 05:20 49.78126 -97.24779 2986 ft 173 kts 323°
2026-05-05 05:21 49.79136 -97.25690 2807 ft 164 kts 337°
2026-05-05 05:21 49.80217 -97.26129 2552 ft 156 kts 351°
2026-05-05 05:21 49.81246 -97.26104 2362 ft 142 kts
2026-05-05 05:21 49.82190 -97.25831 2202 ft 134 kts
2026-05-05 05:22 49.83108 -97.25619 2062 ft 134 kts
2026-05-05 05:22 49.84023 -97.25418 1915 ft 132 kts
2026-05-05 05:22 49.84922 -97.25218 1703 ft 130 kts
2026-05-05 05:22 49.85825 -97.25014 1512 ft 132 kts
2026-05-05 05:23 49.86728 -97.24809 1348 ft 131 kts
2026-05-05 05:23 49.87642 -97.24602 1172 ft 134 kts
2026-05-05 05:23 49.88566 -97.24389 1035 ft 134 kts
2026-05-05 05:23 49.89494 -97.24194 840 ft 134 kts
2026-05-05 05:24 49.90365 -97.24011 789 ft 113 kts 13°
2026-05-05 05:24 49.90978 -97.23851 788 ft 67 kts
2026-05-05 05:24 49.91237 -97.23772 788 ft 14 kts 54°
2026-05-05 05:24 49.91223 -97.23691 787 ft 6 kts 109°
2026-05-05 05:25 49.91216 -97.23658 787 ft 6 kts 109°
2026-05-05 05:25 49.91213 -97.23646 787 ft 6 kts 111°
2026-05-05 05:25 49.91194 -97.23600 787 ft 4 kts 136°
2026-05-05 05:26 49.91154 -97.23565 787 ft 7 kts 152°
2026-05-05 05:26 49.91112 -97.23533 786 ft 8 kts 154°
2026-05-05 05:26 49.91065 -97.23500 786 ft 7 kts 155°
2026-05-05 05:26 49.91018 -97.23466 786 ft 14 kts 155°
2026-05-05 05:27 49.90916 -97.23391 786 ft 16 kts 154°
2026-05-05 05:27 49.90870 -97.23266 786 ft 15 kts 84°
2026-05-05 05:27 49.90891 -97.22936 786 ft 16 kts 88°
2026-05-05 05:28 49.90849 -97.22779 787 ft 16 kts 127°
2026-05-05 05:28 49.90797 -97.22663 788 ft 0 kts 126°
2026-05-05 05:29 49.90782 -97.22631 786 ft 11 kts 126°
2026-05-05 05:29 49.90741 -97.22537 786 ft 9 kts 130°
2026-05-05 05:29 49.90704 -97.22504 786 ft 5 kts 167°
2026-05-05 05:30 49.90692 -97.22502 786 ft 0 kts 174°
2026-05-05 05:30 49.90684 -97.22501 786 ft 0 kts 174°
2026-05-05 05:30 49.90682 -97.22500 786 ft 0 kts 174°